Location: ??????
(55.2000°N, 38.3000°E)
Time: 08:05:20
(UTC+00:00)

COSMO-SKYMED 1 - Pass Details

Date: 15 November 2025
Orbit: 579 x 581 km, 97.9° (Epoch: 14 December)

Event Time Altitude Azimuth Distance (km) Brightness Sun altitude
Rises 03:56:39 0° 207° (SSW) 2,796 5.8 -8.9°
Reaches altitude 10° 03:59:23 10° 227° (SW) 1,902 4.8 -8.5°
Maximum altitude 04:02:13 18° 271° (W) 1,468 3.9 -8.2°
Drops below altitude 10° 04:05:04 10° 314° (NW) 1,912 4.5 -7.8°
Enters shadow 04:06:32 - 327° (NNW) 2,359 5.0 -7.6°
